Weather Roundup
Issued by NWS

Home | Current Version | Previous Version | Text Only | Print | Product List | Glossary On
Versions: 1 2 3 4 5 6 7 8 9 10 11 12 13 14 15 16 17 18 19 20 21 22 23 24 25 26 27 28 29 30 31 32 33 34 35 36 37 38 39 40 41 42 43 44 45 46 47 48 49 50
686
NZUS93 KARX 201810
HRRWXR

CURRENT HOURLY OBSERVATIONS ACROSS
MUCH OF THE UPPER MISSISSIPPI VALLEY
NATIONAL WEATHER SERVICE LA CROSSE WI
1200 PM CST MON FEB 20 2017


...SOUTHEAST MINNESOTA...


CITY           SKY/WX    TMP DP  RH WIND       PRES   REMARKS
ROCHESTER      RAIN      48  48 100 SE16      29.79F FOG
ROCHESTER/MAYO CLOUDY    49  50 100 SE16G23   29.80F
WINONA         RAIN      48  46  93 SE14      29.83F
AUSTIN         RAIN      50  48  93 S10       29.78F
ALBERT LEA     RAIN      52  50  93 S13G22    29.76F
DODGE CENTER   LGT RAIN  48  46  93 SE18      29.78F
PRESTON        LGT RAIN  47  46  95 SE14      29.82F
OWATONNA       LGT RAIN  52  48  87 SE16G23   29.75F
FARIBAULT      LGT RAIN  52  50  93 SE12G22   29.75F
$$

...ELSEWHERE IN MINNESOTA...


CITY           SKY/WX    TMP DP  RH WIND       PRES   REMARKS
MINNEAPOLIS    RAIN      49  47  93 SE9       29.74F VSB 1
INTNL FALLS    LGT RAIN  45  39  79 SE8       29.68F
DULUTH         CLOUDY    42  37  82 SE15      29.77F
RED WING       LGT RAIN  50  46  87 SE9       29.77F
REDWOOD FALLS  LGT RAIN  53  51  93 S13       29.66F FOG
MANKATO        LGT RAIN  52  51  97 S15       29.71F FOG
WORTHINGTON    FOG       51  51 100 S10       29.69S VSB 1/4
FAIRMONT       LGT RAIN  53  52  96 S18       29.71F FOG
$$

...SOUTHWEST WISCONSIN...


CITY           SKY/WX    TMP DP  RH WIND       PRES   REMARKS
LA CROSSE      LGT RAIN  53  48  83 S6        29.87F
PRAIRIE DU CHI CLOUDY    53  48  85 SE10      29.89F HAZE
BOSCOBEL       CLOUDY    55  49  80 VRB3      29.93F HAZE
LONE ROCK      CLOUDY    57  50  77 E9        29.94F HAZE
PLATTEVILLE    CLOUDY    56  53  88 SE16G22   29.92F
FORT MC COY    PTSUNNY   58  51  77 SE10      29.90F
CAMP DOUGLAS   CLOUDY    57  50  77 SE12      29.90F
MAUSTON-NEW LI CLOUDY    57  51  78 SE10      29.91F
VIROQUA        CLOUDY    52  50  93 SE12G17   29.90F
WIS DELLS      CLOUDY    54  47  78 SE13      29.95F HAZE
$$

...ELSEWHERE IN WISCONSIN...


CITY           SKY/WX    TMP DP  RH WIND       PRES   REMARKS
MILWAUKEE      CLOUDY    50  42  74 SE15      30.07F HAZE
MADISON        CLOUDY    58  49  72 S16       29.98F
GREEN BAY      CLOUDY    50  40  68 SE10      30.07F
EAU CLAIRE     LGT RAIN  47  43  86 SE9       29.86S FOG
BLACK RVR FLS  MOCLDY    56  45  66 SE6       29.89F
MEDFORD        CLOUDY    45  37  72 SE13G20   29.93F
WAUSAU         CLOUDY    44  36  73 E12       29.96F
WIS RAPIDS     CLOUDY    53  43  68 SE14G20   29.94F
MARSHFIELD     CLOUDY    45  37  73 E13       29.91F
RICE LAKE      LGT RAIN  46  42  84 SE10      29.86S
$$

...NORTHEAST IOWA...


CITY           SKY/WX    TMP DP  RH WIND       PRES   REMARKS
WATERLOO       CLOUDY    56  51  84 SE14      29.82F
DUBUQUE        PTSUNNY   54  50  86 SE16      29.91F FOG
DECORAH        FOG       50  50 100 SE12      29.84F VSB 1
MASON CITY     LGT RAIN  49  49 100 SE14      29.78F FOG
CHARLES CITY   CLOUDY    50  50 100 SE16      29.81F FOG
OELWEIN        CLOUDY    54  54 100 SE18      29.84F FOG
$$

...ELSEWHERE IN IOWA...


CITY           SKY/WX    TMP DP  RH WIND       PRES   REMARKS
DES MOINES     LGT RAIN  60  57  89 S14       29.79F
IOWA CITY      CLOUDY    63  52  67 SE14      29.90F
FORT DODGE     CLOUDY    55  54  94 S12       29.75F
MARSHALLTOWN   RAIN      57  55  93 SE14      29.81F FOG
CEDAR RAPIDS   CLOUDY    60  53  77 S16       29.86F
$$

...NORTHERN ILLINOIS...


CITY           SKY/WX    TMP DP  RH WIND       PRES   REMARKS
CHICAGO-OHARE  CLOUDY    65  47  52 S16       30.05F
CHICAGO-MIDWAY CLOUDY    65  47  52 S12       30.07F
MOLINE         CLOUDY    64  51  62 SE17G26   29.94F
ROCKFORD       CLOUDY    64  50  60 S20       30.02F
PEORIA         PTSUNNY   68  52  56 S16G24    30.00F
$$

NOTE: "FAIR" INDICATES FEW OR NO CLOUDS BELOW 12,000 FEET WITH NO
SIGNIFICANT WEATHER AND/OR OBSTRUCTIONS TO VISIBILITY. WIND
SPEEDS ARE IN MILES-PER-HOUR.




USA.gov is the U.S. government's official web portal to all federal, state and local government web resources and services.